Upington, South Africa

12:38 AM SAST on July 27, 2017 (GMT +0200)
Upington

Weather History for FAUP - January, 2013

Change the Weather History Date:

Wednesday, January 23, 2013

  Actual Average Record
Temperature  
Mean Temperature 89 °F -  
Max Temperature 107 °F 93 °F 107 °F (2013)
Min Temperature 71 °F 65 °F 60 °F (2009)
Cooling Degree Days 24    
Growing Degree Days 39 (Base 50)    
Moisture  
Dew Point 42 °F    
Average Humidity 19    
Maximum Humidity 46    
Minimum Humidity 5    
Precipitation  
Precipitation 0.00 in 0.04 in - ()
Sea Level Pressure  
Sea Level Pressure 29.95 in    
Wind  
Wind Speed 4 mph ()    
Max Wind Speed 12 mph    
Max Gust Speed -    
Visibility 6.2 miles    
Events      
Averages and records for this station are not official NWS values.
T = Trace of Precipitation, MM = Missing Value Source: Averaged Metar Reports

Daily Weather History Graph

Daily Weather History Graph

Search for Another Location

Airport or City:

Trip Planner

Search our weather history database for the weather conditions in past years. The results will help you decide how hot, cold, wet, or windy it might be!

Date:

Astronomy

Jan. 23, 2013 Rise Set
Actual Time 5:58 AM SAST 7:34 PM SAST
Civil Twilight 5:32 AM SAST 8:00 PM SAST
Nautical Twilight 5:01 AM SAST 8:31 PM SAST
Astronomical Twilight 4:29 AM SAST 9:03 PM SAST
Moon 4:44 PM SAST (1/23) 2:41 AM SAST (1/23)
Length of Visible Light 14h 27m
Length of Day
13h 35m
Waxing Gibbous, 87% of the Moon is Illuminated
Jan 23
Waxing Gibbous
Jan 27
Full
Feb 3
Last Quarter
Feb 10
New
Feb 17
First Quarter

Hourly Weather History & Observations

Time (SAST) Temp. Dew Point Humidity Pressure Visibility Wind Dir Wind Speed Gust Speed Precip Events Conditions
12:00 AM 80.6 °F 42.8 °F 26% 29.95 in - SSW 1.2 mph - N/A   Unknown
1:00 AM 78.8 °F 46.4 °F 32% 29.95 in - NNE 3.5 mph - N/A   Clear
2:00 AM 80 °F 46 °F 20%  in 25 mi ENE 3.5 mph - -  
2:00 AM 78.8 °F 44.6 °F 30% 29.95 in - ENE 3.5 mph - N/A   Clear
3:00 AM 75.2 °F 44.6 °F 34% 29.95 in - East 6.9 mph - N/A   Clear
4:00 AM 75.2 °F 48.2 °F 38% 29.95 in - East 3.5 mph - N/A   Clear
5:00 AM 74 °F 48 °F 29%  in 25 mi East 5.8 mph - -  
5:00 AM 73.4 °F 48.2 °F 41% 29.95 in - East 4.6 mph - N/A   Clear
6:00 AM 71.6 °F 50.0 °F 46% 29.95 in - ENE 4.6 mph - N/A   Unknown
6:39 AM 77.0 °F 46.4 °F 34% 30.01 in - North 3.5 mph - N/A   Clear
7:00 AM 80.6 °F 46.4 °F 30% 29.98 in - NNE 3.5 mph - N/A   Clear
7:34 AM 84.2 °F 42.8 °F 23% 30.01 in - NE 2.3 mph - N/A   Clear
8:00 AM 88 °F 46 °F 14%  in 25 mi ENE 2.3 mph - -   Scattered Clouds
8:00 AM 87.8 °F 44.6 °F 22% 30.01 in - ENE 1.2 mph - N/A   Clear
9:00 AM 93.2 °F 48.2 °F 21% 30.01 in - NNE 11.5 mph - N/A   Clear
10:00 AM 95.0 °F 46.4 °F 19% 30.01 in - NNE 9.2 mph - N/A   Clear
10:46 AM 100.4 °F 41.0 °F 13% 30.01 in - NNE 9.2 mph - N/A   Clear
11:00 AM 101 °F 42 °F 7%  in 25 mi NNE 8.1 mph - -  
11:00 AM 100.4 °F 41.0 °F 13% 29.98 in - NNE 8.1 mph - N/A   Clear
12:00 PM 102.2 °F 41.0 °F 12% 29.98 in - North 3.5 mph - N/A   Clear
1:00 PM 100.4 °F 37.4 °F 11% 29.95 in - NNE 3.5 mph - N/A   Clear
2:00 PM 105 °F 38 °F 5%  in 25 mi SSE 10.4 mph - -   Scattered Clouds
2:00 PM 104.0 °F 37.4 °F 10% 29.92 in 6.2 mi SSE 10.4 mph - N/A   Partly Cloudy
3:00 PM 105.8 °F 39.2 °F 10% 29.92 in 6.2 mi SSE 8.1 mph - N/A   Partly Cloudy
4:00 PM 104.0 °F 35.6 °F 9% 29.89 in 6.2 mi SSW 8.1 mph - N/A   Partly Cloudy
5:00 PM 105 °F 38 °F 5%  in 25 mi SE 5.8 mph - -   Scattered Clouds
5:00 PM 104.0 °F 37.4 °F 10% 29.86 in 6.2 mi SE 5.8 mph - N/A   Partly Cloudy
6:00 PM 105.8 °F 35.6 °F 9% 29.86 in 6.2 mi South 4.6 mph - N/A   Partly Cloudy
7:00 PM 104.0 °F 33.8 °F 9% 29.86 in 6.2 mi SSE 3.5 mph - N/A   Partly Cloudy
8:00 PM 96 °F 34 °F 5%  in 25 mi Calm Calm - -   Scattered Clouds
8:00 PM 95.0 °F 32.0 °F 11% 29.89 in 6.2 mi Calm Calm - N/A   Partly Cloudy
9:00 PM 95.0 °F 37.4 °F 13% 29.89 in - ENE 2.3 mph - N/A   Unknown
10:00 PM 86.0 °F 41.0 °F 20% 29.92 in - NW 4.6 mph - N/A   Unknown
11:00 PM 84 °F 42 °F 14%  in - North 6.9 mph - -  
11:00 PM 84.2 °F 41.0 °F 22% 29.92 in - North 6.9 mph - N/A   Unknown